Regional Weather Roundup
Issued by NWS

Home | Current Version | Previous Version | Graphics & Text | Print | Product List | Glossary On
Versions: 1 2 3 4 5 6 7 8 9 10 11 12 13 14 15 16 17 18 19 20 21 22 23 24 25 26 27 28 29 30 31 32 33 34 35 36 37 38 39 40 41 42 43 44 45 46 47 48 49 50
000
ASUS43 KLOT 270000
RWRIL

ILLINOIS REGIONAL WEATHER ROUNDUP
NATIONAL WEATHER SERVICE CHICAGO/ROMEOVILLE IL
600 PM CST WED NOV 26 2014

NOTE: "FAIR" INDICATES FEW OR NO CLOUDS BELOW 12,000 FEET WITH NO
SIGNIFICANT WEATHER AND/OR OBSTRUCTIONS TO VISIBILITY.

* THESE STATIONS ARE NOT UNDER NWS QUALITY CONTROL. THEY ALSO MAY NOT
  REPORT WEATHER SUCH AS PRECIPITATION OR FOG.

ILZ001-002-007-009-015-016-024-270100-
NORTHWEST ILLINOIS

CITY           SKY/WX    TMP DP  RH WIND       PRES   REMARKS
MOLINE         CLOUDY    28  22  78 NE10      30.15R WCI  19
6HR MIN TEMP:  28; 6HR MAX TEMP:  29;

STERLING*      CLOUDY    25  19  80 NE9       30.15R WCI  15
$$

ILZ003-004-008-010-011-017-018-270100-
NORTH CENTRAL ILLINOIS

CITY           SKY/WX    TMP DP  RH WIND       PRES   REMARKS
ROCKFORD       CLOUDY    27  19  72 N7        30.16R WCI  19
6HR MIN TEMP:  25; 6HR MAX TEMP:  27;

$$

ILZ005-006-012>014-019>023-270100-
NORTHEAST ILLINOIS

CITY           SKY/WX    TMP DP  RH WIND       PRES   REMARKS
CHICAGO-OHARE  CLOUDY    29  21  72 CALM      30.12R
6HR MIN TEMP:  27; 6HR MAX TEMP:  29;

CHICAGO-MIDWAY CLOUDY    30  21  69 NE7       30.12S WCI  23
6HR MIN TEMP:  27; 6HR MAX TEMP:  30;

AURORA         CLOUDY    23  18  81 NW5       30.13R WCI  17
6HR MIN TEMP:  21; 6HR MAX TEMP:  28;

WAUKEGAN       CLOUDY    27  22  81 NW6       30.12S WCI  20
6HR MIN TEMP:  26; 6HR MAX TEMP:  29;

DUPAGE AIRPORT CLOUDY    27  20  75 N3        30.11S
6HR MIN TEMP:  24; 6HR MAX TEMP:  28;

WHEELING       CLOUDY    29  23  78 N5        30.14S WCI  24
6HR MIN TEMP:  27; 6HR MAX TEMP:  29;

NORTHERLY ISL    N/A     29  21  72 E7          N/A  WCI  22
$$

LMZ740>746-270100-
SOUTHERN LAKE MICHIGAN

STATION/POSITION SKY/WX   TEMP    WIND        PRES    VSBY  WAVE
                          AIR SEA DIR/SP/G                  HT/PER
                          (F)     (DEG/KT/KT) (MB)    (MI)  (FT/S)
SOUTHERN BUOY              32 42  100/  4/  6 1021.0F         1/ 3
WAUKEGAN HARBOR            28     320/  9/ 10   N/A
HARRISON CRIB              28      60/  4/  5   N/A
BURNHAM HARBOR             29      70/  5       N/A
CALUMET HARBOR             29      80/  4/  5 1018.8S
MICHIGAN CITY              28      60/  7/  8   N/A
$$

ILZ025>027-034>036-040-047-049-050-058-095>099-270100-
WEST-CENTRAL ILLINOIS

CITY           SKY/WX    TMP DP  RH WIND       PRES   REMARKS
QUINCY         CLOUDY    32  30  92 E9        30.05R FOG     WCI  24
$$

ILZ028>032-037-038-041>044-048-051>054-059>061-270100-
CENTRAL ILLINOIS

CITY           SKY/WX    TMP DP  RH WIND       PRES   REMARKS
DECATUR        LGT SNOW  29  26  89 E9        30.08R FOG     WCI  20
PEORIA         CLOUDY    30  23  75 NE12      30.11R WCI  20
6HR MIN TEMP:  30; 6HR MAX TEMP:  32; 6HR PCP: TRACE;

SPRINGFIELD    LGT SNOW  30  29  96 E8        30.07R VSB 1   WCI  22
6HR MIN TEMP:  30; 6HR MAX TEMP:  34; 6HR PCP:  0.08;

TAYLORVILLE    NOT AVBL
$$

ILZ033-039-045-046-055>057-062-063-270100-
EAST-CENTRAL ILLINOIS

CITY           SKY/WX    TMP DP  RH WIND       PRES   REMARKS
CHAMPAIGN      CLOUDY    29  24  82 NE6       30.08R WCI  23
MATTOON        CLOUDY    30  25  81 NE6       30.06R WCI  24
$$

ILZ079-100>102-270100-
SOUTHWEST ILLINOIS

CITY           SKY/WX    TMP DP  RH WIND       PRES   REMARKS
ALTON          CLOUDY    32  32 100 E6        30.05R FOG     WCI  26
BELLEVILLE     LGT SNOW  33  33 100 E3        30.04R FOG
CAHOKIA*       CLOUDY    33  33 100 CALM      30.05R FOG
$$

ILZ064>066-069>071-074>076-080>082-084>086-088>090-092>094-270100-
SOUTH-CENTRAL ILLINOIS

CITY           SKY/WX    TMP DP  RH WIND       PRES   REMARKS
CARBONDALE     CLOUDY    32  31  96 CALM      30.04R FOG
6HR MIN TEMP:  32; 6HR MAX TEMP:  40; 6HR PCP:  0.18;

MARION         LGT SNOW  34  32  93 CALM      30.03S VSB 1
MT. VERNON     CLOUDY    32  28  86 NE5       30.04S WCI  27
$$

ILZ067-068-072-073-078-083-087-091-270100-
SOUTHEAST ILLINOIS

CITY           SKY/WX    TMP DP  RH WIND       PRES   REMARKS
LAWRENCEVILLE  CLOUDY    36  29  75 N6        30.07R WCI  31
$$

ABBREVIATIONS USED IN REMARKS
   TC - TEMPERATURE IN CELSIUS
  WCI - WIND CHILL INDEX
   HX - HEAT INDEX
  VSB - VISIBILITY
$$



USA.gov is the U.S. government's official web portal to all federal, state and local government web resources and services.